Temperature
2 2 2 2 2 2 2 2 1 1 1 2 2 2 2 2 2 2 2 2 2 2 2 2 2 2 2 2 2 2 2 2 2 3 3 3 3 3
2 2 2 2 2 1 1 1 1 1 1 1 1 2 1 1 1 1 1 1 1 1 1 1 1 1 1 1 2 1 2 2 2 2 2 2 2 3
1 1 1 1 1 1 1 1 1 0 0 1 1 1 1 1 1 1 1 1 1 1 1 1 1 1 1 1 1 1 1 1 1 1 1 2 2 2
1 1 1 1 1 0 0 0 0 0 -0 -0 0 0 0 0 0 0 0 0 0 0 0 0 0 0 0 0 0 0 0 1 1 1 1 1 1 2
0 0 0 0 0 0 -0 -0 -0 -0 -1 -1 -0 -0 -0 -0 -0 -0 -0 -0 -0 -0 -0 -0 -0 -0 -0 -0 -0 -0 -0 0 0 0 1 1 1 1
-0 -0 -0 -0 -0 -0 -1 -1 -1 -1 -1 -1 -1 -1 -1 -1 -1 -1 -1 -1 -1 -1 -1 -1 -1 -1 -1 -0 -0 -0 -0 -0 -0 0 0 1 1 1
-0 -1 -1 -1 -1 -1 -1 -1 -1 -1 -1 -1 -1 -1 -1 -1 -1 -1 -1 -1 -1 -1 -1 -1 -1 -1 -1 -1 -1 -1 -1 -0 -0 -0 0 0 0 1
-1 -1 -1 -1 -1 -1 -1 -1 -1 -1 -1 -1 -1 -1 -1 -1 -2 -2 -2 -2 -2 -2 -2 -1 -1 -1 -1 -1 -1 -1 -1 -1 -1 -0 -0 0 0 0
-1 -1 -1 -1 -1 -1 -1 -2 -2 -1 -1 -2 -2 -2 -2 -2 -2 -2 -2 -2 -2 -2 -2 -2 -1 -1 -1 -1 -1 -1 -1 -1 -1 -1 -0 -0 -0 -0
-2 -2 -2 -2 -2 -2 -2 -2 -2 -2 -2 -2 -2 -2 -2 -2 -2 -2 -2 -3 -3 -3 -3 -3 -2 -2 -2 -2 -2 -2 -2 -1 -1 -1 -1 -1 -0 -0
-2 -2 -2 -2 -2 -2 -2 -2 -2 -2 -2 -2 -2 -2 -2 -2 -3 -3 -3 -3 -3 -3 -3 -3 -3 -2 -2 -2 -2 -2 -2 -2 -1 -1 -1 -1 -1 -1
-3 -3 -3 -3 -3 -3 -3 -2 -2 -2 -2 -2 -2 -2 -2 -2 -3 -3 -3 -3 -3 -3 -3 -3 -3 -3 -3 -2 -2 -2 -2 -2 -2 -1 -1 -1 -1 -1
-3 -3 -3 -3 -3 -3 -3 -3 -3 -3 -3 -3 -3 -3 -3 -3 -3 -3 -3 -3 -3 -3 -3 -4 -3 -3 -4 -4 -3 -2 -2 -2 -2 -2 -2 -2 -1 -1
-3 -3 -3 -3 -3 -3 -3 -3 -3 -3 -3 -3 -3 -3 -3 -3 -3 -3 -3 -3 -3 -4 -3 -4 -4 -4 -4 -4 -4 -3 -2 -2 -2 -2 -2 -2 -2 -2
-3 -3 -3 -3 -3 -3 -3 -3 -3 -3 -3 -3 -4 -4 -4 -4 -4 -4 -4 -4 -4 -4 -4 -4 -4 -4 -4 -4 -4 -4 -3 -3 -3 -3 -2 -2 -2 -2
-4 -4 -4 -3 -3 -4 -3 -3 -3 -4 -4 -4 -4 -4 -4 -4 -4 -4 -4 -4 -4 -3 -4 -4 -4 -4 -4 -4 -4 -4 -4 -4 -3 -3 -3 -2 -2 -2
-4 -4 -4 -4 -4 -4 -4 -4 -4 -4 -4 -4 -4 -4 -4 -5 -5 -5 -5 -5 -5 -4 -4 -4 -4 -4 -4 -4 -4 -4 -4 -4 -3 -3 -3 -3 -2 -2
-4 -4 -4 -4 -4 -4 -4 -4 -4 -4 -4 -4 -5 -5 -5 -5 -5 -5 -5 -5 -5 -5 -4 -4 -4 -4 -4 -4 -4 -4 -4 -4 -3 -3 -3 -3 -2 -2
-4 -4 -4 -4 -4 -4 -4 -4 -4 -5 -5 -5 -5 -5 -5 -5 -5 -5 -5 -5 -5 -5 -5 -5 -5 -5 -5 -5 -4 -4 -4 -4 -3 -3 -3 -3 -3 -2
-4 -4 -4 -4 -5 -5 -5 -5 -5 -5 -5 -5 -5 -5 -5 -5 -5 -5 -5 -5 -5 -5 -5 -5 -5 -5 -5 -5 -5 -4 -4 -4 -4 -3 -3 -3 -3 -3
-4 -4 -4 -5 -5 -5 -5 -5 -5 -5 -5 -5 -5 -5 -5 -5 -5 -5 -5 -5 -5 -5 -5 -5 -5 -5 -5 -5 -5 -5 -4 -4 -4 -4 -3 -3 -3 -3
-5 -5 -5 -5 -5 -5 -5 -5 -5 -5 -5 -5 -5 -5 -5 -5 -5 -5 -5 -5 -5 -5 -5 -5 -5 -5 -5 -5 -5 -5 -4 -4 -4 -4 -4 -4 -4 -4
-5 -5 -5 -5 -5 -5 -5 -5 -5 -5 -5 -5 -5 -5 -5 -5 -5 -5 -5 -5 -5 -5 -5 -5 -5 -5 -5 -5 -5 -5 -5 -4 -4 -4 -4 -4 -4 -4
Wind_Speed
4 4 4 3 3 3 3 3 3 4 4 3 2 2 4 5 6 6 6 7 8 8 9 8 9 10 11 12 12 13 13 14 14 14 15 15 16 16
3 4 4 3 3 3 3 3 4 4 4 2 2 3 4 5 7 6 6 8 8 9 9 9 9 10 11 12 12 13 13 13 14 14 15 15 15 16
3 4 4 4 3 3 3 3 3 4 5 4 3 3 3 3 5 6 6 6 6 8 9 9 10 10 11 12 12 12 13 13 13 14 14 15 15 16
4 4 5 4 4 3 3 4 4 4 4 5 3 3 3 3 3 3 5 5 5 7 9 9 10 11 11 11 12 12 13 13 13 14 14 14 15 16
5 5 5 4 4 3 3 4 4 3 3 4 4 3 3 2 2 3 4 3 5 6 8 9 9 11 12 12 12 12 12 12 13 13 13 14 14 15
5 5 5 5 5 5 4 4 4 3 3 3 4 3 3 2 1 2 4 3 4 5 6 7 9 11 12 12 11 11 12 12 12 13 13 13 13 14
5 5 5 6 7 6 5 4 4 3 3 3 3 3 3 2 2 2 4 4 4 3 3 4 6 6 8 10 10 10 11 11 12 12 12 13 13 13
5 5 5 6 7 8 9 8 6 5 4 4 3 4 4 3 3 3 3 4 4 2 3 5 4 5 5 6 9 11 11 11 11 11 12 12 13 13
5 5 5 5 6 5 7 7 7 8 7 5 5 5 5 4 4 4 4 4 5 4 3 5 4 5 5 7 11 11 10 10 11 11 11 12 12 12
5 6 6 5 6 5 5 5 5 5 6 5 5 5 5 4 5 5 4 4 4 4 3 4 4 4 5 6 9 9 9 10 11 11 11 11 11 12
5 5 5 5 8 7 5 4 4 4 5 6 6 6 7 7 4 2 2 3 4 3 2 2 3 4 4 4 5 8 9 11 11 11 11 11 11 11
4 5 7 7 8 7 4 4 4 3 2 2 3 3 3 4 5 4 3 3 3 3 2 1 2 3 3 3 3 5 6 9 10 11 11 11 10 7
4 3 4 7 7 6 5 4 4 3 2 1 1 1 2 2 2 2 3 3 4 4 3 2 2 2 3 4 3 4 3 4 6 7 10 10 10 7
4 3 4 6 6 5 4 3 3 2 1 1 1 1 2 2 2 2 3 3 4 5 5 4 3 3 3 5 4 4 4 4 3 4 5 8 9 9
3 4 4 4 4 3 3 3 1 1 1 1 2 2 2 2 2 2 2 2 2 3 4 4 4 4 3 4 4 4 4 4 3 3 4 4 4 5
2 2 2 2 1 1 1 1 1 2 2 2 2 2 1 1 2 2 2 2 2 3 3 3 3 3 3 4 4 5 4 3 4 4 4 4 4 4
1 1 0 0 0 1 1 1 1 1 1 1 1 1 1 2 2 2 2 2 2 3 3 3 2 2 3 4 4 5 4 4 4 4 3 4 4 4
1 1 1 1 2 1 1 1 1 1 1 1 1 1 2 2 2 2 2 2 2 3 3 3 3 3 3 2 3 4 4 4 4 4 3 3 4 4
1 2 2 2 2 1 1 1 1 1 1 1 1 1 1 2 2 2 2 2 2 3 3 3 2 2 3 4 3 3 3 4 4 3 2 2 3 4
1 2 2 2 2 2 1 1 1 1 1 1 1 1 1 2 2 2 2 2 3 3 3 3 2 2 3 3 3 4 5 4 3 3 3 2 3 4
1 2 2 2 1 1 1 1 1 1 1 1 1 1 2 2 2 2 2 3 3 3 3 3 4 5 3 2 3 3 4 4 3 2 3 2 3 2
2 2 2 1 1 1 1 1 1 1 1 1 1 1 1 2 2 2 2 2 2 3 3 3 3 3 2 2 3 4 4 5 5 5 4 1 1 1
2 2 2 1 1 1 2 2 2 2 2 2 1 1 1 2 2 2 2 2 2 2 2 3 3 2 2 2 2 3 4 5 4 4 4 5 2 2
Wind_Direction
236 235 236 243 228 226 227 224 231 269 275 259 266 287 310 305 310 315 314 314 316 318 320 321 322 323 325 323 321 320 319 318 319 318 316 314 312 310
240 238 241 245 236 228 225 227 224 233 259 258 259 282 299 304 310 317 310 313 315 315 315 316 318 318 320 319 318 317 318 318 318 317 316 315 315 312
247 240 244 245 241 234 228 229 230 227 253 276 267 285 282 293 310 311 311 308 308 313 313 316 316 316 316 317 318 317 316 316 317 317 317 317 317 315
246 245 248 248 247 237 230 235 238 234 240 268 283 285 279 282 291 302 312 311 307 311 312 315 315 314 315 316 314 315 315 315 317 318 318 318 318 319
240 244 248 242 251 248 238 239 239 245 237 252 277 282 282 284 297 305 304 299 306 310 308 311 314 315 316 314 313 313 315 316 317 318 319 319 320 321
241 241 240 236 239 242 241 236 231 235 237 245 267 281 283 284 283 300 311 312 307 310 306 309 310 312 313 313 312 313 315 318 317 317 318 320 320 320
244 243 241 244 246 248 246 235 224 227 236 247 259 276 277 280 277 280 297 309 301 289 308 310 309 308 310 310 314 316 316 318 317 317 318 318 319 319
242 246 246 248 251 260 259 253 239 231 233 239 258 259 265 265 266 274 287 303 299 294 306 301 300 293 300 302 307 314 317 319 319 320 321 319 318 319
233 238 252 255 256 248 256 261 259 252 241 235 242 248 253 249 247 259 265 275 278 278 294 292 289 289 296 302 306 311 316 320 321 322 322 320 321 322
235 235 240 251 249 245 239 244 245 248 247 243 236 243 250 241 234 244 254 278 281 274 264 279 285 286 297 303 305 312 324 327 326 326 326 326 325 324
247 241 241 246 255 253 238 243 256 262 266 261 258 261 268 269 261 250 253 270 288 281 255 254 282 298 292 289 306 318 325 325 325 327 329 331 332 332
252 250 252 252 255 253 229 227 248 261 265 283 285 282 275 267 263 238 227 247 277 277 251 257 285 315 305 284 290 315 320 321 325 329 330 332 336 340
252 252 251 260 265 263 253 233 245 259 241 236 261 274 281 276 280 265 237 236 253 260 250 256 276 282 275 294 296 295 302 314 325 326 327 330 333 336
248 249 250 261 267 267 264 255 258 267 202 222 250 275 280 284 290 293 282 271 259 258 252 251 258 263 281 291 293 301 308 311 316 317 323 326 328 328
251 260 269 272 270 264 262 253 243 194 199 233 255 272 275 278 294 312 322 326 325 301 279 268 257 266 271 279 290 295 301 303 307 307 315 318 319 325
262 269 287 290 295 287 267 256 233 208 214 234 256 264 282 286 289 298 303 313 316 311 317 303 275 263 277 279 280 289 293 292 307 308 306 308 317 321
237 208 107 331 253 265 269 265 221 206 224 234 245 267 284 291 294 298 297 301 298 300 315 322 327 310 271 270 279 283 289 291 291 301 308 307 306 315
218 196 216 237 243 245 254 279 263 239 245 245 244 251 274 280 294 304 302 295 298 300 304 308 318 324 317 296 256 268 284 290 296 300 298 303 314 323
203 212 228 242 248 245 238 252 264 267 259 244 250 256 267 274 277 284 294 301 303 300 299 300 307 312 313 310 304 281 284 297 303 305 305 297 301 311
215 234 240 238 240 236 238 252 260 272 258 250 251 252 257 264 269 275 282 289 296 302 305 307 301 288 276 285 292 304 305 295 297 305 313 309 296 303
248 247 242 236 235 238 241 244 240 242 251 252 258 259 262 265 273 281 286 288 296 294 295 298 294 299 291 289 296 308 315 322 317 302 306 313 323 343
253 257 255 246 236 238 240 229 227 239 247 252 257 261 263 264 270 278 281 282 288 291 294 300 311 318 310 298 301 311 324 335 345 350 350 332 265 309
255 253 248 240 238 238 234 228 228 234 239 244 258 265 263 268 279 279 279 284 289 293 301 307 319 323 317 305 311 322 331 338 345 0 4 6 348 308
Height
1476 1477 1477 1477 1477 1478 1478 1478 1478 1475 1473 1472 1473 1473 1473 1472 1471 1470 1469 1468 1467 1466 1465 1464 1462 1461 1460 1458 1457 1455 1453 1452 1450 1448 1446 1445 1443 1441
1472 1472 1472 1472 1473 1473 1473 1473 1473 1473 1470 1468 1468 1469 1468 1468 1467 1466 1465 1464 1463 1462 1461 1459 1458 1457 1455 1454 1452 1450 1448 1447 1445 1443 1442 1440 1438 1436
1467 1467 1467 1468 1468 1468 1468 1468 1468 1468 1466 1464 1465 1465 1464 1464 1463 1462 1461 1459 1458 1457 1456 1455 1453 1452 1451 1449 1447 1445 1444 1442 1440 1439 1437 1435 1433 1432
1463 1463 1463 1463 1463 1463 1463 1463 1463 1463 1462 1460 1460 1460 1460 1459 1459 1458 1457 1456 1454 1453 1452 1451 1449 1448 1446 1444 1443 1441 1439 1438 1436 1435 1433 1431 1429 1427
1458 1458 1458 1458 1458 1458 1458 1458 1458 1458 1458 1457 1456 1456 1456 1455 1454 1454 1453 1452 1451 1449 1448 1447 1445 1444 1442 1440 1438 1437 1435 1434 1432 1430 1428 1426 1424 1423
1453 1453 1453 1453 1453 1453 1453 1453 1454 1454 1454 1453 1453 1452 1452 1451 1451 1450 1448 1448 1447 1446 1444 1443 1441 1440 1438 1436 1434 1433 1431 1430 1428 1426 1424 1422 1420 1419
1448 1448 1448 1448 1448 1449 1449 1449 1450 1450 1450 1449 1449 1448 1448 1447 1447 1446 1445 1444 1443 1442 1440 1439 1437 1435 1434 1432 1430 1429 1427 1426 1424 1422 1420 1418 1416 1415
1443 1443 1443 1444 1444 1444 1444 1445 1446 1446 1445 1445 1445 1444 1444 1444 1443 1443 1442 1440 1438 1438 1436 1434 1434 1432 1430 1429 1427 1425 1424 1422 1420 1418 1416 1414 1412 1411
1438 1439 1439 1439 1439 1439 1440 1440 1441 1441 1442 1442 1441 1440 1440 1440 1439 1439 1438 1437 1435 1434 1433 1429 1429 1428 1427 1425 1423 1422 1420 1418 1417 1415 1413 1411 1409 1406
1434 1434 1434 1434 1434 1435 1435 1436 1436 1436 1437 1437 1437 1437 1437 1437 1436 1435 1434 1433 1432 1431 1430 1427 1425 1424 1423 1421 1420 1419 1417 1415 1413 1411 1409 1408 1405 1403
1430 1430 1430 1430 1430 1431 1431 1431 1431 1431 1432 1433 1433 1433 1433 1433 1432 1431 1430 1429 1427 1426 1426 1424 1422 1420 1419 1418 1417 1415 1414 1412 1410 1408 1406 1404 1403 1401
1426 1426 1426 1426 1426 1427 1427 1427 1427 1427 1428 1428 1428 1428 1428 1428 1428 1428 1427 1426 1424 1423 1422 1421 1419 1418 1415 1413 1413 1412 1411 1409 1407 1405 1403 1401 1400 1398
1421 1422 1422 1422 1423 1423 1423 1423 1424 1424 1424 1424 1424 1424 1424 1424 1424 1424 1424 1423 1422 1420 1420 1419 1417 1415 1414 1411 1409 1408 1407 1405 1404 1402 1400 1399 1397 1396
1418 1418 1418 1419 1419 1420 1420 1420 1420 1421 1420 1420 1420 1420 1420 1420 1420 1420 1420 1419 1419 1418 1417 1416 1414 1413 1411 1408 1406 1405 1404 1403 1401 1399 1398 1396 1395 1393
1415 1416 1416 1416 1416 1416 1416 1417 1417 1417 1417 1417 1417 1417 1417 1417 1417 1416 1416 1416 1415 1415 1414 1413 1412 1410 1409 1406 1404 1402 1400 1399 1398 1396 1395 1393 1392 1390
1413 1413 1413 1413 1414 1414 1414 1414 1414 1414 1414 1414 1414 1414 1414 1414 1414 1413 1413 1412 1411 1411 1411 1410 1408 1407 1405 1404 1402 1399 1398 1397 1395 1394 1392 1391 1389 1388
1410 1410 1411 1411 1411 1411 1411 1411 1411 1411 1411 1412 1412 1411 1411 1411 1411 1411 1411 1410 1409 1407 1406 1406 1405 1404 1403 1401 1399 1397 1396 1394 1393 1391 1389 1388 1387 1386
1408 1408 1408 1408 1408 1408 1408 1408 1408 1408 1409 1409 1409 1409 1409 1409 1409 1409 1409 1408 1407 1405 1404 1403 1402 1401 1400 1398 1398 1395 1394 1392 1390 1389 1388 1386 1384 1384
1406 1406 1406 1406 1406 1406 1406 1406 1406 1406 1406 1407 1407 1407 1407 1407 1407 1406 1406 1406 1405 1404 1403 1402 1401 1399 1398 1396 1395 1394 1392 1390 1388 1387 1385 1384 1383 1382
1403 1403 1404 1404 1404 1404 1404 1404 1404 1404 1404 1405 1405 1405 1406 1406 1405 1405 1404 1404 1403 1402 1401 1400 1399 1398 1397 1395 1393 1392 1391 1389 1387 1385 1384 1383 1382 1381
1401 1401 1401 1401 1402 1402 1402 1402 1402 1402 1403 1403 1403 1403 1404 1404 1403 1403 1403 1402 1401 1400 1399 1398 1398 1397 1396 1394 1392 1390 1389 1388 1386 1384 1382 1381 1380 1379
1399 1399 1399 1400 1400 1400 1400 1401 1401 1401 1401 1401 1401 1402 1402 1402 1402 1401 1401 1400 1399 1399 1398 1397 1396 1395 1394 1393 1390 1389 1387 1386 1384 1383 1382 1381 1380 1379
1397 1397 1397 1398 1398 1398 1398 1399 1399 1399 1399 1399 1400 1400 1400 1400 1400 1400 1399 1399 1398 1397 1396 1395 1394 1394 1393 1391 1390 1388 1386 1385 1383 1382 1381 1381 1380 1379